Voltar ao catálogo

FENGYUN 1C DEB

AtivoSSO
NORAD 38137·DEBRIS·🇨🇳 China

Lançado May 10, 1999 de Taiyuan Satellite Launch Center

Loading…

Próximas Passagens (próximas 24 horas)

TLE

EnvelhecendoSource: Space-Track

Época: Sep 3, 2026, 22:40 UTC

1 38137U 99025EQJ 26246.94451423  .00000010  00000-0  31669-4 0  9999
2 38137  98.8336 288.6878 0046437  46.1068 314.3921 14.06382224674368

Acompanhe FENGYUN 1C DEB em tempo real com AllMySat

Download on the App Store